This is the latest recevied weather packets stored in our database for station/object GUNLAK-WX. If no packets are shown the sender has not sent any weather packets the latest 10 day(s).
| Time | Temp. | Humidity | Pressure | Rain* | Wind** | Luminosity | Snow |
|---|---|---|---|---|---|---|---|
| 1777088779 | 13.89° C | 92% | 982.1 hPa | 0 mm | - | - | - |
| 1777087891 | 14.44° C | 89% | 982.2 hPa | 0 mm | - | - | - |
| 1777086977 | 14.44° C | 89% | 982.2 hPa | 0 mm | - | - | - |
| 1777086099 | 15° C | 89% | 982.2 hPa | 0 mm | - | - | - |
| 1777085178 | 15° C | 85% | 981.7 hPa | 0 mm | - | - | - |
| 1777084289 | 15° C | 87% | 981.3 hPa | 0 mm | - | - | - |
| 1777083377 | 15.56° C | 87% | 981.3 hPa | 0 mm | - | - | - |
| 1777082492 | 15.56° C | 87% | 981.3 hPa | 0 mm | - | - | - |
| 1777081577 | 15.56° C | 82% | 980.8 hPa | 0 mm | - | - | - |
| 1777080690 | 16.11° C | 82% | 980.8 hPa | 0 mm | - | - | - |
| 1777079777 | 15.56° C | 82% | 980.7 hPa | 0 mm | - | - | - |
| 1777078895 | 15.56° C | 82% | 980.7 hPa | 0 mm | - | - | - |
| 1777077975 | 16.11° C | 78% | 981.4 hPa | 0 mm | - | - | - |
| 1777077089 | 15.56° C | 80% | 981.7 hPa | 0 mm | - | - | - |
| 1777076176 | 16.11° C | 80% | 981.7 hPa | 0 mm | - | - | - |
| 1777075303 | 16.67° C | 80% | 981.7 hPa | 0 mm | - | - | - |
| 1777074379 | 16.67° C | 80% | 981 hPa | 0 mm | - | - | - |
| 1777073490 | 16.67° C | 80% | 980.6 hPa | 0 mm | - | - | - |
| 1777072577 | 17.78° C | 80% | 980.6 hPa | 0 mm | - | - | - |
| 1777071696 | 17.78° C | 80% | 980.6 hPa | 0 mm | - | - | - |
| 1777070777 | 17.78° C | 74% | 979.7 hPa | 0 mm | - | - | - |
| 1777069887 | 17.78° C | 69% | 980.7 hPa | 0 mm | - | - | - |
| 1777068979 | 18.33° C | 69% | 980.7 hPa | 0 mm | - | - | - |
| 1777068098 | 18.89° C | 69% | 980.7 hPa | 0 mm | - | - | - |
| 1777067179 | 19.44° C | 63% | 980.1 hPa | 0 mm | - | - | - |
* Rain latest hour (hover to see other rain measurements)
** Current wind speed in m/s (hover to see current wind gust speed)